{"data":{"norad_id":58228,"intl_designator":"2023-170Y","name":"STARLINK-30871","alt_names":[],"object_type":"PAYLOAD","status":"ACTIVE","operator":null,"country":"US","launch_date":"2023-11-03","launch_site_code":"AFETR","launch_vehicle":null,"mission":null,"orbit_class":"UNKNOWN","rcs_meters":null,"size_class":null,"mass_kg":null,"dimensions":null,"purposes":["comms"],"wikipedia_slug":null,"has_3d_model":false,"image_url":null,"decayed_at":null,"tle_current":{"epoch":"2026-05-24T07:38:17.721888Z","epoch_age_seconds":131164,"freshness":"FRESH","line1":"1 58228U 23170Y   26144.31826067 -.00000945  00000+0 -24821-4 0  9998","line2":"2 58228  43.0018 127.2875 0000923 261.1149  98.9598 15.27575479141863","mean_motion":15.27575479,"eccentricity":9.23e-5,"inclination_deg":43.0018,"raan_deg":127.2875,"arg_perigee_deg":261.1149,"mean_anomaly_deg":98.9598,"bstar":-2.4821e-5,"rev_number":14186,"period_min":94.267027704757,"perigee_km":482.42934484728,"apogee_km":483.69592229964,"semimajor_km":6861.1996335735,"source":"CELESTRAK","updated_at":"2026-05-25T13:38:18.578828Z"}}}